Temp
23 25 24 29 30 32 29 29 29 31 29 29 31 33 33 26 24 23 31 30 30 30 29 28 27 26 26 24 23 22 22 21 21 20 19 19 20 20 21 22 22 21 21 20
27 25 29 29 31 33 31 30 30 33 34 31 33 29 30 29 31 31 32 31 31 30 30 29 28 27 26 25 23 22 21 21 21 20 20 20 21 21 21 22 22 22 21 21
23 27 32 34 33 33 33 33 33 34 35 33 33 25 26 25 28 34 34 31 31 31 30 29 28 27 27 25 24 23 22 21 21 20 20 21 21 22 22 22 22 22 21 21
27 29 34 34 33 34 32 34 34 34 32 27 31 23 23 23 27 34 34 33 33 31 30 25 29 28 27 26 25 23 22 22 22 21 20 21 21 21 22 22 22 21 19 20
32 32 33 33 34 34 34 35 34 35 35 34 34 32 29 28 32 34 34 33 33 32 30 29 27 28 27 27 25 22 23 22 21 22 21 21 21 21 22 22 21 21 21 20
33 33 35 35 35 35 35 35 35 35 35 31 34 33 31 33 33 33 33 32 31 31 31 31 29 29 27 27 26 23 24 23 23 22 22 21 21 21 21 20 20 20 20 19
25 31 36 35 34 34 34 35 32 33 32 31 35 35 34 34 33 33 32 31 30 30 30 31 28 28 26 27 26 21 24 24 23 22 21 21 19 20 19 18 19 19 17 17
25 30 35 36 35 33 34 35 33 31 32 33 36 33 34 35 34 34 33 33 31 30 30 30 31 27 27 27 25 24 24 23 22 21 21 19 18 19 17 17 18 18 17 17
26 28 36 36 36 35 34 33 35 34 35 34 36 35 35 36 35 33 33 33 32 31 29 28 29 28 26 25 24 24 24 23 22 21 21 19 18 18 16 15 17 17 17 18
35 33 36 35 35 36 34 35 33 34 32 31 34 34 33 33 33 33 33 33 31 30 29 27 27 27 26 25 23 23 22 22 21 21 20 19 18 19 19 18 17 19 17 17
35 34 35 36 35 35 35 34 35 35 34 32 32 34 35 33 33 33 33 32 30 29 28 27 27 25 24 23 22 22 21 20 20 20 19 18 18 20 19 19 17 17 15 16
35 34 33 34 36 37 36 34 34 33 32 34 33 33 37 34 34 34 33 30 28 28 26 24 23 23 22 21 20 20 20 19 19 18 18 16 17 18 19 17 18 17 15 14
34 33 32 33 36 37 35 35 35 35 34 32 31 32 37 36 35 33 31 30 28 25 23 22 21 20 20 20 18 18 19 18 18 19 17 17 16 17 18 17 18 18 16 15
32 33 32 31 32 34 33 34 35 34 32 33 33 33 34 34 34 32 31 30 27 25 22 21 20 19 19 18 17 16 17 18 18 17 17 17 16 17 17 17 16 15 15 15
33 31 32 33 33 34 33 33 34 33 33 32 33 33 33 33 31 30 29 28 28 27 24 23 21 19 18 17 16 16 16 17 16 18 17 16 16 16 16 15 15 15 14 14
34 31 32 31 33 33 33 34 34 34 34 34 33 33 34 31 30 28 28 28 28 27 25 22 20 19 19 17 15 15 15 16 16 16 16 16 16 15 15 14 14 14 14 14
33 32 31 30 31 31 30 33 34 34 34 33 31 31 32 30 29 28 27 27 27 25 24 21 20 20 19 17 16 15 14 15 15 15 15 16 15 15 15 14 14 14 14 13
32 31 31 29 30 28 32 35 34 33 33 32 31 31 31 29 28 27 26 26 25 25 24 23 21 19 18 17 16 15 15 14 14 14 14 15 14 14 13 13 13 13 13 13
34 32 31 29 30 31 32 34 32 30 30 31 30 29 29 28 27 26 24 24 24 24 23 23 21 19 17 17 16 15 14 14 14 14 13 13 13 13 13 13 13 13 13 13
33 33 31 30 28 27 31 33 31 31 28 29 28 28 27 27 25 27 25 25 24 24 24 23 20 18 17 17 16 15 15 14 14 14 13 13 13 14 13 13 12 13 13 13
31 30 29 29 29 30 32 31 30 27 27 27 27 27 26 26 25 25 24 24 23 23 23 22 19 18 17 17 16 15 15 14 14 14 13 13 13 13 13 13 13 13 13 12
31 30 30 30 29 28 30 30 28 27 27 27 26 26 26 25 25 24 24 24 23 22 22 21 20 18 18 16 16 15 15 15 15 14 14 14 13 13 13 13 13 13 13 13
30 31 30 30 30 30 30 29 28 28 27 27 26 26 25 25 24 24 24 23 23 22 22 21 19 17 17 16 16 15 16 15 15 14 14 14 14 13 13 13 13 12 13 13
31 31 30 29 30 30 29 28 28 27 27 26 25 25 25 24 24 23 23 22 22 21 21 20 18 18 16 16 16 16 15 15 15 14 14 14 13 13 13 13 13 13 13 13
30 30 29 28 29 28 28 28 27 26 25 25 25 25 24 24 24 23 22 22 21 20 20 20 17 19 18 16 16 16 16 15 15 14 14 13 13 13 13 13 14 14 14 15
29 29 28 28 28 27 26 26 25 25 25 24 24 24 24 24 23 23 22 21 20 19 19 20 20 19 18 17 16 16 15 15 15 14 14 14 15 15 15 14 15 15 15 15
Height
1502 1510 1513 1492 1485 1477 1497 1500 1501 1485 1485 1487 1480 1472 1474 1482 1485 1491 1480 1491 1496 1500 1505 1510 1516 1521 1525 1528 1530 1534 1536 1540 1541 1544 1548 1551 1553 1556 1558 1560 1561 1561 1563 1564
1506 1509 1491 1489 1483 1475 1484 1494 1492 1474 1469 1478 1475 1492 1485 1481 1476 1469 1477 1486 1490 1492 1496 1501 1508 1515 1520 1522 1524 1529 1533 1536 1538 1540 1543 1548 1551 1554 1555 1557 1557 1559 1560 1563
1515 1498 1485 1478 1476 1479 1483 1484 1479 1476 1465 1470 1474 1510 1494 1487 1479 1472 1475 1480 1485 1489 1485 1484 1490 1505 1511 1513 1515 1519 1524 1528 1532 1536 1541 1544 1548 1551 1553 1554 1553 1553 1555 1557
1506 1490 1480 1478 1483 1478 1490 1473 1471 1470 1478 1509 1477 1538 1516 1500 1496 1477 1478 1479 1480 1482 1484 1485 1483 1488 1497 1504 1511 1520 1522 1520 1526 1532 1537 1539 1543 1546 1548 1551 1548 1548 1548 1551
1492 1488 1482 1483 1480 1477 1478 1469 1470 1464 1465 1471 1470 1492 1496 1487 1483 1476 1477 1479 1480 1480 1481 1482 1486 1487 1490 1496 1508 1512 1523 1520 1522 1526 1531 1535 1538 1542 1546 1546 1546 1546 1547 1547
1488 1483 1479 1475 1475 1473 1470 1469 1463 1457 1462 1497 1471 1478 1491 1482 1481 1480 1482 1485 1486 1485 1482 1481 1482 1483 1492 1499 1496 1507 1513 1514 1516 1521 1523 1528 1532 1538 1540 1541 1542 1545 1544 1543
1509 1486 1471 1477 1477 1474 1470 1467 1492 1489 1492 1507 1462 1469 1475 1471 1476 1481 1483 1486 1488 1487 1485 1482 1481 1481 1477 1489 1491 1504 1504 1508 1512 1512 1519 1521 1530 1536 1538 1536 1539 1540 1541 1540
1524 1506 1471 1469 1475 1482 1476 1471 1486 1508 1499 1487 1453 1482 1473 1459 1469 1474 1478 1480 1482 1484 1486 1484 1481 1475 1480 1476 1496 1493 1498 1502 1504 1506 1506 1511 1519 1524 1531 1535 1535 1537 1537 1538
1516 1510 1465 1466 1470 1472 1475 1483 1465 1481 1463 1477 1464 1461 1460 1459 1465 1473 1476 1478 1480 1481 1485 1489 1486 1484 1486 1493 1496 1490 1494 1498 1500 1501 1505 1507 1510 1522 1523 1528 1537 1533 1532 1532
1473 1489 1462 1466 1469 1466 1473 1469 1487 1476 1504 1510 1481 1479 1480 1472 1471 1472 1474 1476 1480 1484 1486 1489 1491 1489 1489 1489 1489 1489 1493 1497 1500 1501 1503 1504 1511 1513 1519 1524 1519 1525 1525 1525
1474 1478 1476 1462 1467 1468 1471 1475 1472 1468 1477 1502 1504 1483 1458 1466 1468 1470 1471 1474 1479 1483 1486 1488 1491 1491 1490 1491 1491 1492 1491 1493 1496 1497 1499 1502 1505 1510 1513 1518 1520 1522 1523 1523
1474 1478 1487 1475 1457 1455 1462 1473 1475 1490 1495 1479 1483 1484 1451 1459 1463 1466 1469 1475 1480 1483 1487 1490 1491 1491 1490 1488 1488 1488 1490 1490 1489 1492 1492 1497 1504 1509 1513 1516 1518 1521 1519 1525
1480 1483 1492 1482 1460 1454 1466 1468 1468 1468 1468 1486 1497 1485 1449 1454 1457 1462 1468 1474 1477 1482 1486 1488 1490 1489 1488 1486 1485 1486 1485 1486 1486 1484 1489 1495 1502 1508 1507 1508 1513 1517 1519 1521
1485 1486 1494 1504 1486 1471 1476 1467 1464 1468 1483 1479 1474 1467 1457 1456 1458 1462 1467 1472 1477 1481 1484 1486 1489 1488 1488 1485 1484 1483 1482 1482 1483 1485 1487 1487 1495 1500 1500 1504 1509 1513 1514 1517
1482 1493 1485 1479 1474 1470 1471 1470 1466 1470 1467 1478 1469 1468 1461 1459 1463 1467 1471 1474 1476 1478 1480 1483 1485 1486 1486 1484 1481 1480 1481 1479 1482 1479 1454 1484 1490 1491 1496 1501 1503 1506 1508 1511
1474 1485 1480 1483 1472 1468 1470 1462 1459 1459 1457 1456 1457 1461 1455 1462 1468 1472 1475 1475 1475 1475 1477 1480 1483 1485 1484 1482 1482 1479 1479 1479 1479 1479 1479 1483 1489 1491 1496 1498 1500 1504 1506 1509
1474 1476 1483 1491 1477 1475 1483 1464 1455 1450 1449 1455 1469 1462 1460 1466 1470 1472 1474 1474 1473 1475 1476 1479 1481 1481 1481 1480 1479 1479 1479 1478 1478 1479 1482 1477 1489 1493 1495 1497 1499 1500 1504 1506
1471 1475 1478 1489 1483 1505 1464 1445 1446 1452 1454 1456 1459 1463 1465 1469 1471 1473 1474 1475 1475 1476 1475 1475 1476 1476 1478 1478 1477 1478 1478 1478 1478 1480 1477 1480 1486 1490 1495 1495 1498 1498 1503 1505
1461 1467 1476 1487 1484 1470 1460 1446 1454 1460 1462 1456 1461 1465 1467 1471 1473 1475 1476 1478 1478 1476 1475 1474 1472 1473 1475 1479 1477 1478 1477 1479 1480 1481 1481 1483 1486 1487 1492 1494 1498 1500 1501 1505
1456 1459 1472 1478 1492 1496 1462 1448 1452 1456 1473 1461 1466 1468 1471 1473 1476 1472 1474 1474 1474 1473 1471 1472 1470 1471 1474 1476 1477 1478 1478 1479 1481 1482 1484 1485 1486 1487 1491 1494 1497 1501 1502 1505
1462 1466 1475 1475 1477 1467 1451 1450 1454 1476 1476 1466 1467 1469 1471 1472 1474 1474 1473 1472 1470 1470 1469 1468 1466 1468 1469 1471 1473 1476 1478 1479 1480 1482 1483 1484 1486 1489 1491 1494 1497 1499 1501 1504
1461 1463 1464 1461 1470 1477 1455 1453 1464 1465 1464 1465 1467 1469 1469 1470 1470 1471 1470 1467 1467 1467 1467 1464 1460 1462 1464 1467 1469 1474 1475 1477 1479 1480 1482 1484 1486 1489 1491 1493 1495 1498 1500 1502
1459 1451 1459 1459 1456 1451 1454 1456 1457 1458 1460 1462 1464 1466 1466 1465 1466 1467 1466 1465 1463 1462 1461 1461 1465 1467 1461 1463 1467 1470 1473 1475 1477 1479 1480 1482 1485 1488 1490 1492 1494 1496 1499 1501
1448 1447 1449 1450 1448 1449 1451 1454 1456 1457 1457 1459 1461 1461 1462 1463 1462 1462 1462 1461 1460 1458 1457 1465 1460 1463 1465 1458 1465 1469 1471 1474 1476 1478 1480 1481 1483 1485 1487 1489 1492 1494 1496 1498
1451 1450 1448 1448 1447 1449 1451 1453 1455 1456 1458 1459 1459 1458 1458 1457 1457 1458 1458 1458 1456 1456 1454 1457 1452 1461 1459 1456 1462 1466 1469 1472 1474 1476 1478 1480 1482 1484 1486 1488 1490 1491 1492 1494
1451 1448 1450 1449 1449 1451 1453 1454 1455 1455 1456 1457 1457 1455 1454 1454 1453 1453 1454 1454 1454 1455 1453 1452 1454 1451 1452 1454 1460 1464 1466 1468 1472 1474 1476 1478 1478 1479 1481 1483 1485 1487 1489 1489
Wind_Speed
22 2 5 18 21 1 4 3 7 10 19 11 14 7 4 29 31 32 23 24 20 18 19 20 18 19 20 20 20 24 22 22 24 22 22 19 20 18 17 18 16 15 10 12
1 2 17 16 22 5 8 10 11 15 16 17 2 20 23 13 18 27 22 21 22 22 19 23 24 22 22 24 23 23 26 26 25 24 20 19 17 19 17 17 21 24 16 15
4 13 15 8 3 5 9 11 8 9 5 11 6 17 17 26 34 9 3 28 23 25 25 31 33 28 27 29 30 27 26 29 30 25 20 22 20 20 19 19 22 23 23 18
9 16 5 7 7 9 3 7 11 9 4 4 15 5 4 15 20 3 3 3 6 27 22 19 31 35 34 33 32 28 26 27 24 27 24 26 26 22 19 16 18 24 23 19
2 5 10 9 3 5 9 10 10 14 10 5 5 9 6 15 9 11 13 12 8 12 22 30 29 35 35 33 33 28 30 26 25 26 27 25 24 23 17 20 17 17 20 21
9 15 5 8 4 6 12 14 14 16 11 6 8 7 8 7 9 10 10 11 12 12 13 9 30 32 27 34 27 40 34 29 27 27 31 29 28 22 19 18 19 17 17 17
14 14 5 4 9 3 13 14 4 5 3 3 7 1 10 15 11 7 4 4 4 8 10 9 23 30 33 32 30 35 38 35 31 29 28 29 18 22 19 16 15 15 13 12
6 5 6 8 3 8 12 9 10 12 9 3 4 4 8 15 16 11 9 7 6 6 12 13 13 22 27 34 27 38 30 38 35 35 24 15 24 23 17 16 20 20 16 15
9 8 4 6 4 3 6 10 16 10 14 6 5 12 18 10 12 15 10 13 15 5 4 8 15 12 9 13 22 23 22 31 35 33 24 27 28 30 26 23 24 23 17 9
12 9 7 10 4 13 8 8 8 6 5 7 10 8 10 10 10 10 9 11 11 9 4 1 7 12 10 4 6 15 17 24 27 31 30 29 30 24 21 13 21 18 23 14
9 11 13 3 10 8 8 6 11 11 6 6 10 7 12 9 6 6 7 10 11 8 10 4 7 7 7 6 5 10 16 20 22 26 28 32 34 29 31 23 18 19 15 13
15 12 11 17 17 6 8 8 10 8 11 11 12 10 6 7 3 7 10 14 12 5 5 4 5 8 10 13 14 9 12 19 22 22 28 30 30 28 26 29 22 24 18 15
10 8 9 11 13 9 3 5 10 10 11 12 11 10 7 12 14 12 14 11 11 8 4 5 8 8 11 14 16 18 18 16 27 28 31 29 32 31 35 28 24 21 17 19
4 12 13 12 18 17 14 14 15 14 12 15 15 17 15 17 16 9 9 9 9 4 0 5 9 9 11 15 17 15 15 19 18 26 26 29 33 33 36 23 22 22 19 19
4 12 13 16 17 18 20 20 18 19 16 16 18 18 16 13 14 17 14 12 9 7 5 5 10 11 11 11 13 12 12 16 17 20 31 35 33 35 37 29 25 21 22 20
9 12 13 17 19 19 20 20 19 19 20 17 18 15 12 17 16 15 13 14 13 6 3 3 6 11 12 12 10 12 9 12 17 20 18 23 26 25 28 24 25 23 20 16
15 12 13 17 19 20 17 19 18 13 8 11 12 13 14 12 14 13 16 17 12 6 1 4 8 11 12 11 13 8 5 7 12 15 18 14 21 22 21 20 20 18 15 16
15 12 10 14 15 18 19 14 9 9 10 7 7 11 10 10 11 15 10 12 9 11 9 9 10 10 9 10 7 6 5 2 4 9 10 15 18 17 15 12 12 14 13 15
14 13 11 13 14 20 22 13 5 6 9 12 8 8 8 11 12 6 8 6 9 12 11 15 11 9 8 8 9 5 4 3 5 5 8 11 11 11 12 12 13 13 13 12
9 6 9 11 16 20 16 19 7 3 8 10 7 5 8 12 8 7 20 19 17 20 14 14 9 7 8 10 9 6 5 6 7 6 7 12 13 12 15 14 12 14 13 12
9 10 11 11 16 16 16 9 6 6 2 5 7 9 12 8 11 14 19 24 11 12 13 12 8 8 9 13 12 8 11 9 8 9 8 8 8 12 12 13 15 15 13 11
16 12 12 11 15 19 13 3 4 5 2 5 10 14 15 15 12 15 16 14 10 10 13 9 9 12 11 14 13 13 11 9 8 6 10 11 10 12 12 14 14 14 14 14
12 12 10 12 12 5 6 4 7 9 8 10 11 15 15 14 13 15 17 19 9 11 14 14 8 9 12 16 15 14 11 11 10 10 9 10 11 12 14 15 15 15 15 14
15 16 12 12 13 18 18 17 19 16 11 12 15 15 13 14 15 13 15 20 11 12 16 11 8 9 13 14 14 14 12 16 15 14 14 13 13 15 14 8 12 12 15 13
15 15 14 14 12 17 17 16 9 10 11 14 16 16 16 17 11 12 12 14 6 10 14 9 15 13 11 13 15 15 17 19 16 15 15 14 14 15 15 15 16 14 14 19
21 14 11 11 16 15 14 17 17 17 15 16 17 18 16 18 13 13 9 8 8 9 13 10 10 12 10 14 15 16 19 22 19 18 17 16 17 18 18 18 13 18 21 19
Wind_Direction
360 50 232 259 289 35 151 38 299 199 216 218 232 262 352 163 167 281 168 185 191 189 193 191 190 189 188 187 193 194 199 191 205 206 196 199 196 202 196 209 202 223 205 235
113 233 250 242 255 23 104 121 271 254 159 208 67 29 19 347 194 220 175 188 199 191 191 188 184 193 195 192 199 204 197 196 206 209 207 188 193 208 206 209 212 210 227 219
195 257 233 278 1 14 8 324 325 334 303 38 20 33 48 322 315 46 339 188 189 210 199 191 182 191 198 199 199 209 207 204 208 208 202 188 205 215 216 221 225 227 233 230
223 257 261 264 346 332 325 279 305 317 76 172 254 147 256 230 255 162 203 63 224 202 200 234 185 185 198 201 203 210 215 207 208 197 201 196 199 210 213 213 230 215 212 201
332 292 267 334 67 333 328 329 300 291 266 185 297 129 210 206 201 61 56 37 12 331 206 203 193 202 203 201 188 211 222 217 211 200 195 205 207 210 212 233 230 221 223 227
265 279 265 322 340 269 306 271 261 287 277 337 80 152 164 128 66 45 39 32 7 349 308 251 204 213 201 208 209 196 217 221 218 218 199 205 210 202 216 222 223 233 243 237
323 283 191 298 288 349 286 300 314 284 75 291 80 74 108 119 112 107 110 48 33 3 326 295 195 207 211 200 183 233 211 216 218 222 221 204 203 223 227 224 209 204 201 206
239 248 211 143 308 343 305 325 338 334 356 277 150 92 137 124 127 148 69 29 132 83 1 347 304 220 210 195 210 199 204 207 211 211 218 270 221 223 248 248 241 250 246 248
173 256 134 205 312 294 337 304 356 309 292 294 17 33 84 96 129 67 32 12 345 67 81 343 333 352 84 193 184 200 200 207 209 218 230 222 229 212 237 273 277 268 274 302
328 321 315 124 213 245 229 333 314 337 309 328 351 314 79 62 40 22 357 351 55 11 84 4 305 305 306 302 201 225 230 228 221 228 244 236 221 194 218 293 243 275 252 245
303 288 297 165 253 257 180 265 318 297 273 295 285 327 103 88 41 357 356 31 33 11 16 4 316 291 272 260 268 212 238 235 235 236 237 214 211 221 219 237 224 216 211 210
311 316 304 312 314 235 275 310 298 301 307 309 314 303 28 88 145 24 1 66 43 19 37 3 291 267 270 265 258 239 228 223 230 221 218 219 222 205 225 224 226 212 214 249
333 309 318 316 285 231 212 265 292 303 307 288 291 287 297 350 356 25 61 32 49 74 68 341 287 273 268 264 264 260 227 232 236 230 217 213 212 210 214 232 209 219 247 260
300 273 281 284 298 313 309 305 297 299 293 294 292 306 330 337 332 16 2 34 41 80 14 314 276 265 275 276 280 280 253 233 225 221 224 223 213 215 214 231 223 231 245 240
239 266 275 280 291 302 305 301 297 292 281 278 292 296 311 352 37 35 26 8 349 337 219 272 267 254 270 277 293 284 267 250 225 239 219 209 211 208 214 231 240 233 244 238
252 272 268 274 278 281 287 292 281 283 280 283 295 299 7 31 28 15 354 330 324 319 297 233 266 267 276 279 283 293 272 249 238 236 226 215 223 232 234 238 238 241 230 228
287 290 298 290 303 302 288 281 278 298 332 342 326 352 8 14 4 357 341 318 323 351 143 230 251 262 266 264 275 297 302 261 235 232 223 239 249 247 238 226 221 227 225 199
273 265 269 275 276 271 278 286 307 279 289 282 334 332 339 5 354 344 5 9 351 342 330 235 232 234 239 258 246 258 306 291 193 215 213 213 216 214 217 206 198 190 191 185
263 266 268 274 276 279 269 278 15 10 317 338 19 8 354 360 340 12 43 359 327 311 294 304 235 210 208 220 237 227 197 187 183 180 195 191 188 178 188 181 180 177 185 193
238 285 276 273 280 283 300 318 103 14 287 51 47 2 343 333 312 309 340 321 318 303 307 300 202 195 204 214 209 213 208 184 199 224 212 200 196 190 177 180 188 192 189 198
237 225 248 267 268 276 285 84 69 257 26 25 346 342 327 319 316 323 315 306 315 316 311 287 183 189 212 214 232 214 209 202 197 201 189 179 192 187 188 196 187 185 189 196
276 278 257 251 255 267 20 332 310 45 300 300 327 320 314 305 312 309 306 313 315 311 299 246 201 210 225 219 212 204 205 214 188 192 188 190 195 195 188 184 189 200 194 195
283 280 278 274 292 327 307 259 289 293 318 311 304 299 292 291 297 301 318 318 274 282 275 249 211 215 200 211 206 211 203 192 187 182 173 183 187 178 211 213 205 194 197 201
293 292 276 276 277 285 286 309 310 311 317 305 304 299 287 293 292 308 313 299 288 291 274 239 219 222 220 211 217 211 205 190 205 207 203 206 206 185 216 207 201 200 216 225
282 290 296 298 287 284 278 284 329 322 310 297 290 282 280 279 286 303 304 303 273 278 269 284 220 223 228 223 218 203 208 192 203 201 202 201 200 203 203 213 217 220 221 229
284 290 285 287 323 314 322 326 316 307 300 296 294 293 282 292 288 294 280 269 251 270 264 261 275 256 232 231 220 207 207 203 202 201 201 204 205 216 208 220 213 220 234 236